Regional Weather Roundup
Issued by NWS Wakefield, VA

Home | Current Version | Previous Version | Graphics & Text | Print | Product List | Glossary On
Versions: 1 2 3 4 5 6 7 8 9 10 11 12 13 14 15 16 17 18 19 20 21 22 23 24 25 26 27 28 29 30 31 32 33 34 35 36 37 38 39 40 41 42 43 44 45 46 47 48 49 50
000
ASUS41 KAKQ 010414
RWRAKQ
REGIONAL WEATHER ROUNDUP
NATIONAL WEATHER SERVICE WAKEFIELD VA
1200 AM EDT WED APR 01 2015

Note: "fair" indicates few or no clouds below 12,000 feet with no
significant weather and/or obstructions to visibility. * = Denotes
station may not report precipitation (e.g., rain,snow,etc.),
thunder or fog.

VAZ042-051-052>054-056-010500-
NORTHERN VIRGINIA

CITY           SKY/WX    TMP DP  RH WIND       PRES   REMARKS
WASH NATIONAL  PTCLDY    47  37  68 N21G31    29.89R
DULLES         PTCLDY    44  32  62 N20G29    29.89R
FORT BELVOIR   CLEAR     47  36  65 NW14G24   29.88R
QUANTICO       CLEAR     49  37  63 N23       29.89R
FREDERICKSBRG* PTCLDY    51  38  62 N13G21    29.86R
STAFFORD*      PTCLDY    47  35  62 N12G28    29.91R
WARRENTON      CLEAR     48  42  80 N13G20    29.88R
CULPEPER*      PTCLDY    48  39  71 N7        29.88R
MANASSAS*      CLEAR     46  37  71 N15G21    29.89R
LEESBURG*      CLEAR     43  34  70 N13G24    29.92R
WINCHESTER     PTCLDY    45  28  53 N6        29.93R
FRONT ROYAL*   FAIR      45  34  65 N13G24    29.89R
LURAY*         FAIR      52  34  50 NW25G38   29.88R
$$

VAZ048-049-060>072-079>083-010500-
CENTRAL AND SOUTH CENTRAL VIRGINIA

CITY           SKY/WX    TMP DP  RH WIND       PRES   REMARKS
RICHMOND       MOCLDY    58  39  49 N15       29.84R
CHESTERFIELD*  NOT AVBL
PETERSBURG*    MOCLDY    59  37  44 N13       29.84R
HANOVER        PTCLDY    54  39  57 VRB6      29.87R
TAPPAHANNOCK*  PTCLDY    54  36  51 N7        29.85R
QUINTON*       FAIR      55  39  54 N8        29.84R
CHARLOTTSVILLE MOCLDY    55  35  47 N13       29.84R
GORDONSVILLE*  FAIR      52  38  58 NE7       29.84R
ORANGE*        MOCLDY    50  39  66 N9        29.87R
LOUISA*        MOCLDY    54  41  62 NE9       29.84R
BUMPASS*       FAIR      52  39  60 N9        29.84R
FARMVILLE*     PTCLDY    57  38  48 NE7       29.82R
CREWE*         MOCLDY    58  36  44 MISG      29.83R
FORT PICKETT*  FAIR      58  37  45 NE8G16    29.82R
CHASE CITY*    CLOUDY    64  38  39 N3        29.80R
CLARKSVILLE*   MOCLDY    64  34  32 CALM      29.79R
SOUTH HILL*    MOCLDY    60  35  38 N6        29.85R
LAWRENCEVILLE* FAIR      61  38  42 NE6G17    29.80R
EMPORIA*       PTCLDY    59  37  44 N12       29.82R
$$

VAZ088>098-010500-
SOUTHEAST VIRGINIA

CITY           SKY/WX    TMP DP  RH WIND       PRES   REMARKS
NORFOLK        PTCLDY    51  43  74 N12       29.79R
VIRGINIA BEACH PTCLDY    57  43  59 N15       29.79R
NORFOLK NAVAL  MOCLDY    55  44  66 N13       29.82R
WEST POINT*    MOCLDY    58  39  50 N6        29.85R
SALUDA*        MOCLDY    52  43  71 N8        29.83R
NEWPORT NEWS   MOCLDY    57  44  62 N9        29.81R
LANGLEY AFB    MOCLDY    57  43  58 N14       29.80R
FORT EUSTIS    MOCLDY    56  45  65 N6        29.80R
WILLIAMSBURG*  MOCLDY    57  45  62 N8        29.83R
HR EXEC AP*    FAIR      55  43  62 N6        29.82R
FRANKLIN*      MOCLDY   N/A N/A N/A N12G23    29.82R
WAKEFIELD      MOCLDY    58  40  51 N6        29.82R
$$

VAZ020-022-025-037-045-010500-
WEST CENTRAL AND SOUTHWEST VIRGINIA

CITY           SKY/WX    TMP DP  RH WIND       PRES   REMARKS
STAUNTON*      MOCLDY    55  29  38 NW16G23   29.87R
WAYNESBORO*    FAIR      54  31  41 NW7G20    29.86R
HOT SPRINGS VA CLEAR     43  30  60 NW17G25   29.84S
LYNCHBURG      CLEAR     61  31  32 VRB5      29.84R
DANVILLE       MOCLDY    62  40  44 N6        29.81R
SOUTH BOSTON*  FAIR      61  32  32 CALM      29.80R
MARTINSVILLE   CLEAR     63  35  34 NW10      29.85R
ROANOKE        CLEAR     59  32  36 NW18G33   29.86R
BLACKSBURG     PTCLDY    53  32  44 NW9       29.92R
DUBLIN*        CLEAR     56  33  42 N9        29.92R
MARION*        CLEAR     58  29  32 N20G30    29.91R
HILLSVILLE*    CLEAR     58  33  38 NW12      29.89R
RICHLANDS*     FAIR      53  28  37 N13G18    29.95R
WISE*          CLEAR     54  28  37 NW12G17   29.97R
ABINGDON*      CLEAR     61  30  30 N6G18     29.92R
$$

MDZ021>025-VAZ099-100-010500-
SOUTHERN MARYLAND AND THE DELMARVA PENINSULA

CITY           SKY/WX    TMP DP  RH WIND       PRES   REMARKS
PATUXENT RIVER CLEAR     45  37  73 N22       29.86R
BAY BRIDGE APT   N/A     43  36  75 N16G22    29.87R
LEONARDTOWN    PTCLDY    45  36  70 CALM      29.88R
DOVER          CLOUDY    40  40 100 N17       29.84R
GEORGETOWN     CLOUDY    41  39  93 N8        29.84R
EASTON         CLEAR     43  38  82 N10       29.89R
CAMBRIDGE      CLEAR     45  36  70 N14G20    29.85R
SALISBURY      MOCLDY    48  43  82 NW9       29.81R
OCEAN CITY     CLOUDY    45  43  93 NW3       29.80R FOG
WALLOPS ISLAND MOCLDY    50  47  89 N6        29.81R
ACCOMACK*      MOCLDY    52  43  71 N8        29.81R
$$

NCZ012>017-030>032-010500-
NORTH CENTRAL AND EASTERN NORTH CAROLINA

CITY           SKY/WX    TMP DP  RH WIND       PRES   REMARKS
ROANOKE RAPIDS FAIR      59  37  44 NW7G20    29.78R
RALEIGH        PTCLDY    60  39  45 SW8       29.80R
ELIZABETH CITY CLOUDY    60  40  47 NW13      29.80R
AHOSKIE*       PTCLDY    62  37  40 N9        29.80R
EDENTON*       PTCLDY    60  44  55 SW9G18    29.74S
CURRITUCK*     CLOUDY    60  37  42 W8        29.78R
KILL DEVIL HLS PTCLDY    58  45  60 SW12G22   29.72S
MANTEO         PTCLDY    58  46  62 SW21      29.74S
CAPE HATTERAS  CLEAR     62  52  69 SW23G35   29.79S
TARBORO*       MOCLDY    62  41  46 SW7       29.78R
GOLDSBORO      CLEAR     58  55  88 SW2       29.78R
WASHINGTON     CLEAR     59  43  55 SW12      29.78S
GREENVILLE     CLEAR     61  43  51 SW12      29.81R
NEW BERN       PTCLDY    60  47  61 SW9       29.82R
WILMINGTON     CLEAR     64  56  75 SW12G20   29.85S
$$

VAZ048-010500-
ELSEWHERE

CITY           SKY/WX    TMP DP  RH WIND       PRES   REMARKS
HARRISBURG PA  MOCLDY    38  30  73 NW7       29.93R
BALTIMORE      PTCLDY    40  31  70 N16G26    29.89R
ANNAPOLIS      CLEAR     44  33  65 NW17G28   29.87R
ANDREWS AFB    PTCLDY    43  36  77 N13       29.86R
PHILADELPHIA   CLOUDY    39  33  79 NW10      29.87R
HENDERSON NC   CLOUDY    62  31  31 SW5       29.79R
GREENSBORO     PTCLDY    64  39  39 W9        29.80R
ROCKY MOUNT    PTCLDY    57  41  55 SW8       29.78R
$$

VAZ100-010500-
MARINE

STATION/POSITION TIME  TEMP    WIND        PRES    WAVE   SWELL
                       AIR SEA DIR/SP/G            HT/PER HT/PER
                 (UTC) (F)     (DEG/KT/KT) (MB)    (FT/S) (FT/S)
BRANDYWINE LGT   0300   42 40  350/ 21/ 23 1008.3R
CAPE MAY NJ      0300   44 44   10/  6/ 10 1007.3R
LEWES DE         0300   43 42  330/ 15/ 18 1007.9R
15NM E FENWICK I 0350   42 40              1008.1R   5/ 6
OCEAN-CITY-INLET 0300   46 42   20/  2/  2 1007.7R
WACHAPREAGUE VA  0300   52 52  350/  2/  3 1008.4R
THOMAS POINT MD  0400                        N/A
COVE POINT MD    0300   44      30/ 13/ 17 1009.3R
SOLOMONS ISLAND  0300      45                N/A
BISHOPS HEAD MD  0300          360/  4/  8 1008.7R
PINEY POINT MD   0300           10/ 15/ 18   N/A
CAMBRIDGE MD     0300   48 44  330/ 15/ 21 1009.0R
LEWISETTA VA     0300   51 44              1009.2R
RAPPAHANNOCK LGT 0300           20/ 12/ 12 1009.0R
STINGRAY PT      0400   49 46   10/ 12/ 14   N/A     1/ 3
YORK RVR RNG VA  0300   53      20/ 17/ 19 1007.7R
YORKTOWN VA      0300   55 46   30/ 14/ 17 1008.2R
DOMINION TERM VA 0300   59      40/  8/ 19 1007.8R
KIPTOPEKE VA     0300      51   10/ 17/ 22   N/A
CHES BAY BRIDGE  0300   51 42  350/ 20/ 24 1008.0R
CAPE HENRY VA    0300   53     340/ 20/ 24 1006.9R
CHESAPEAKE LGHT  0300   60     310/ 16/ 28 1008.4R
WILLOUBY STN VA  0300           10/ 23/ 27 1008.6R
S CRANEY ISL VA  0300           20/ 24/ 32 1007.5R
CAPE HENRY BUOY  0328      42                N/A     3/ 5
1ST LANDING BUOY 0400   50     360/ 12/ 14 1008.4R   2/ 3
OFFSHORE WE BUOY 0311      41                N/A     4/ 5   2/ 8
64NM E OF VA BCH 0350   52 49  260/ 12/ 14 1007.7R   6/ 6   5/ 6
DUCK PIER NC     0300   59 42  220/ 20/ 27 1005.4S
44056 DUCK FRF   0311      42                N/A     2/ 8
OREGON INLET NC  0300   56 54  200/ 20/ 23 1007.4F
HATTERAS NC      0300   63 58  230/ 17/ 25 1009.2F
CAPE LOOKOUT NC  0400   61     230/ 17/ 23 1009.9S
$$


USA.gov is the U.S. government's official web portal to all federal, state and local government web resources and services.